KTYQKBMG

Guest
Details From KTYQ - Indianapolis Executive
To KBMG - Monroe Co
Flight Number -
Tags generated
Created
Modified
Stats Distance 56 nm / 104 km
Max Altitude 5,000 ft / 1,524 m
Waypoints 3
Social Downloads 1
Likes 0
Share VATSIM

Download

Looking for another format? Having issues loading an existing format? Contact us
Advertisement - Login to hide

Notes

Basic altitude profile: - Ascent Rate: 2500ft/min - Ascent Speed: 250kts - Cruise Altitude: 35000ft - Cruise Speed: 420kts - Descent Rate: 1500ft/min - Descent Speed: 250kts Options: - Use NATs: yes - Use PACOTS: yes - Use low airways: yes - Use high airways: no

Route

KTYQ VHP KBMG

ID Type Via Altitude Latitude Longitude Leg Dist Tot Dist Heading (true) Name
O KTYQ APT - 0 ft / 0 m 40.03067˚ -86.25143˚ - 0 nm - Indianapolis Executive
VHP VOR - 5,000 ft / 1,524 m 39.81472˚ -86.36747˚ 14 nm 14 nm 202° / 202° BRICKYARD VORTAC
O KBMG APT - 0 ft / 0 m 39.14483˚ -86.61678˚ 41 nm 55 nm 196° / 196° Monroe Co

Altitude Profile

Advertisement - Login to hide

KTYQ

Details ICAO KTYQ
Name Indianapolis Executive
Region United States
Timezone America/Indiana/Indianapolis (UTC-4.0)
Stats Elevation 922 ft / 281 m (AMSL)
Location 40.030668° -86.251435°
Runways 1
Magnetic Variation 4.735° W

METAR

KTYQ 210755Z AUTO 07004KT 7SM BKN055 18/17 A3011 RMK AO2 T01750165

Decode

TAF

Not found

Departure Runways

ID Width Length Bearing (true) Bearing (mag) Surface Threshold Offset Overrun Length
18 100 ft / 30 m 5,510 ft / 1,679 m 179.47° 184.21° Asphalt 0 ft / 0 m 0 ft / 0 m
36 100 ft / 30 m 5,510 ft / 1,679 m 359.47° 4.21° Asphalt 157 ft / 48 m 0 ft / 0 m

KBMG

Details ICAO KBMG (BMG)
Name Monroe Co
Region United States
Timezone America/Indiana/Indianapolis (UTC-4.0)
Stats Elevation 846 ft / 258 m (AMSL)
Location 39.144829° -86.616782°
Runways 2
Magnetic Variation 4.328° W

METAR

KBMG 210753Z AUTO 00000KT 10SM CLR 21/19 A3007 RMK AO2 SLP174 T02060189

Decode

TAF

TAF KBMG 210520Z 2106/2206 VRB03KT P6SM SCT050 BKN200 FM211100 14004KT P6SM VCTS BKN080CB FM211800 19007KT 6SM -SHRA VCTS BKN040CB FM220300 VRB03KT P6SM BKN100 AMD LTD TO CLD VIS AND WIND TIL 211300

Decode

Destination Runways

ID Width Length Bearing (true) Bearing (mag) Surface Threshold Offset Overrun Length
06 98 ft / 30 m 3,818 ft / 1,164 m 61.73° 66.06° Asphalt 305 ft / 93 m 0 ft / 0 m
17 151 ft / 46 m 6,512 ft / 1,985 m 171.69° 176.02° Asphalt 0 ft / 0 m 0 ft / 0 m
24 98 ft / 30 m 3,818 ft / 1,164 m 241.73° 246.06° Asphalt 223 ft / 68 m 0 ft / 0 m
35 151 ft / 46 m 6,512 ft / 1,985 m 351.69° 356.02° Asphalt 0 ft / 0 m 0 ft / 0 m

Approach Navaids

Runway Type Ident Frequency Range Bearing (true) Bearing (mag) Slope Elevation
35 Localiser IBMG 108.30 MHz 18 nm / 33 km 351.90° 356.23° - 846 ft / 258 m (AMSL)
35 Glidescope IBMG 108.30 MHz 10 nm / 19 km 351.69° 356.02° 3.00° 837 ft / 255 m (AMSL)